Home > Weather > Moers > Past weeks

Flag for Germany Past Weather in Moers, North Rhine-Westphalia, Germany — Yesterday and Last 2 Weeks

Now
61 °F

Passing clouds.


Feels Like: 61 °F
Forecast: 56 / 71 °F
Wind: 7 mph from East

Location: Duesseldorf

Current Time: May 31, 2016 at 4:13:33 AM

Latest Report: May 31, 2016 at 3:20 AM


Visibility: N/A

Pressure: 29.65 "Hg

Humidity: 88%

Dew Point: 57 °F

Location of MoersLocation

Past Weather in Moers — Graph

°F

Moers Temperature Yesterday

Maximum temperature yesterday: 72 °F (at 6:20 PM)
Minimum temperature yesterday: 61 °F (at 2:20 AM)
Average temperature yesterday: 63 °F

High & Low Weather Summary for the Past Weeks

 TemperatureHumidityPressure
High77 °F (May 28, 2:50 PM)100% (May 19, 3:50 AM)30.12 "Hg (May 19, 3:50 AM)
Low43 °F (May 16, 3:50 AM)38% (May 26, 4:50 PM)29.56 "Hg (May 30, 5:50 PM)
Average60 °F76%29.91 "Hg
* Reported May 16 2:20 AM — May 31 2:50 AM, Moers, Weather by CustomWeather, © 2016

Note: Actual official high and low records may vary slightly from our data, if they occured in-between our weather recording intervals... More about our weather records

Advertising

Moers Weather History for the Previous 24 Hours

Scroll right to see more
 ConditionsComfort  
Time TempWeatherWind HumidityBarometerVisibility
2:50 AM
Tue, May 31
61 °FPassing clouds.9 mph88%29.65 "HgN/A
2:20 AM61 °FPassing clouds.8 mph88%29.65 "HgN/A
1:50 AM63 °FPassing clouds.12 mph83%29.65 "HgN/A
1:20 AM63 °FPassing clouds.10 mph83%29.65 "HgN/A
12:50 AM63 °FPartly cloudy.9 mph88%29.65 "HgN/A
12:20 AM61 °FPassing clouds.6 mph94%29.65 "HgN/A
11:50 PM
Mon, May 30
61 °FPassing clouds.7 mph94%29.62 "HgN/A
11:20 PM61 °FPassing clouds.6 mph94%29.62 "HgN/A
10:50 PM63 °FPassing clouds.8 mph88%29.62 "HgN/A
10:20 PM63 °FScattered clouds.8 mph88%29.62 "HgN/A
9:50 PM63 °FScattered clouds.6 mph94%29.62 "HgN/A
9:20 PM64 °FScattered clouds.7 mph88%29.59 "HgN/A
8:50 PM64 °FScattered showers. Scattered clouds.6 mph94%29.59 "HgN/A
8:20 PM66 °FScattered showers. Scattered clouds.3 mph94%29.59 "Hg5 mi
7:50 PM68 °FSprinkles. Scattered clouds.7 mph94%29.59 "Hg4 mi
7:20 PM68 °FLots of rain. Fog.9 mph94%29.59 "Hg1 mi
6:20 PM72 °FScattered clouds.6 mph83%29.59 "Hg4 mi
5:50 PM70 °FFog.6 mph88%29.56 "Hg3 mi
5:20 PM68 °FFog.6 mph88%29.59 "Hg3 mi
4:50 PM68 °FScattered showers. Broken clouds.8 mph88%29.59 "Hg4 mi
4:20 PM68 °FScattered showers. Broken clouds.8 mph88%29.59 "Hg4 mi
3:50 PM68 °FScattered showers. Broken clouds.8 mph88%29.59 "Hg4 mi
3:20 PM68 °FScattered showers. Fog.7 mph88%29.59 "Hg3 mi
2:50 PM66 °FScattered showers. Fog.10 mph88%29.62 "Hg3 mi
2:20 PM64 °FScattered showers. Fog.12 mph94%29.62 "Hg3 mi
1:50 PM64 °FFog.10 mph94%29.62 "Hg3 mi
1:20 PM64 °FLight rain. Fog.8 mph94%29.62 "Hg2 mi
12:50 PM63 °FLight rain. Fog.10 mph100%29.62 "Hg2 mi
12:20 PM61 °FLight rain. Fog.10 mph100%29.62 "Hg2 mi
11:50 AM61 °FThundershowers. Partly sunny.9 mph100%29.62 "Hg1 mi
11:20 AM61 °FThunderstorms. Partly sunny.12 mph100%29.62 "Hg1 mi
10:50 AM61 °FThunderstorms. Partly sunny.12 mph100%29.62 "Hg1 mi
10:20 AM61 °FSprinkles. Partly sunny.7 mph94%29.62 "Hg5 mi
9:50 AM61 °FSprinkles. Broken clouds.9 mph94%29.62 "HgN/A
9:20 AM61 °FSprinkles. Broken clouds.8 mph94%29.62 "HgN/A
8:50 AM61 °FLight rain. Fog.9 mph100%29.62 "Hg3 mi
8:20 AM61 °FSprinkles. Fog.9 mph100%29.62 "Hg2 mi
7:50 AM61 °FThundershowers. Fog.9 mph100%29.62 "Hg3 mi
7:20 AM61 °FLight rain. Fog.9 mph100%29.62 "Hg3 mi
6:50 AM61 °FLight rain. Fog.7 mph100%29.62 "Hg1 mi
6:20 AM61 °FThunderstorms. Partly cloudy.9 mph100%29.65 "Hg1 mi
5:50 AM61 °FThunderstorms. Partly cloudy.7 mph100%29.65 "Hg1 mi
5:20 AM61 °FThunderstorms. Low clouds.10 mph100%29.65 "Hg2 mi
4:50 AM61 °FThundershowers. Low clouds.9 mph94%29.65 "Hg3 mi
4:20 AM61 °FLow clouds.10 mph94%29.65 "Hg5 mi
Weather by CustomWeather, © 2016

See weather overviewHow to use our weather pages